Temp
-10 -11 -11 -10 -10 -9 -10 -11 -10 -10 -10 -10 -10 -10 -11 -11 -10 -10 -10 -11 -11 -11 -10 -10 -10 -11 -11 -10 -11 -11 -11 -10 -10 -10 -10 -10 -10 -10 -10 -10 -10 -10 -10 -9 -10 -9 -9 -9 -9
-11 -11 -10 -10 -10 -10 -10 -11 -11 -11 -11 -11 -11 -11 -11 -10 -10 -10 -11 -11 -11 -11 -10 -10 -10 -11 -11 -11 -11 -11 -11 -11 -11 -11 -10 -10 -11 -11 -11 -11 -10 -10 -10 -10 -10 -9 -10 -10 -9
-11 -11 -11 -10 -10 -10 -10 -11 -11 -11 -11 -11 -11 -10 -10 -10 -11 -10 -11 -11 -11 -11 -11 -10 -10 -10 -11 -11 -11 -11 -11 -11 -11 -11 -11 -11 -11 -11 -11 -11 -11 -10 -10 -10 -11 -11 -10 -10 -10
-10 -10 -10 -10 -10 -10 -10 -10 -11 -11 -11 -11 -11 -11 -10 -10 -11 -11 -11 -11 -11 -11 -11 -11 -11 -11 -11 -11 -11 -11 -11 -11 -11 -12 -12 -12 -11 -11 -12 -12 -11 -11 -11 -11 -11 -10 -10 -10 -10
-10 -10 -10 -10 -10 -10 -11 -11 -10 -10 -11 -11 -11 -12 -11 -10 -10 -11 -11 -11 -11 -11 -11 -11 -11 -11 -11 -11 -11 -11 -11 -11 -11 -12 -12 -12 -11 -11 -11 -12 -12 -11 -11 -11 -11 -10 -10 -10 -10
-10 -10 -9 -9 -10 -10 -10 -11 -10 -10 -10 -10 -10 -11 -11 -11 -11 -11 -11 -11 -11 -11 -11 -11 -11 -11 -11 -11 -11 -11 -11 -11 -11 -11 -12 -12 -12 -11 -12 -12 -12 -11 -11 -10 -11 -11 -11 -11 -11
-10 -10 -9 -9 -10 -10 -11 -11 -10 -10 -10 -11 -11 -11 -11 -11 -11 -11 -11 -11 -11 -11 -11 -11 -11 -11 -11 -11 -11 -11 -11 -11 -12 -11 -11 -12 -12 -12 -12 -12 -12 -11 -11 -11 -11 -11 -11 -11 -11
-10 -10 -8 -9 -10 -11 -12 -11 -11 -10 -10 -10 -10 -10 -11 -11 -11 -11 -12 -12 -11 -11 -11 -11 -11 -11 -11 -11 -11 -11 -11 -11 -12 -12 -11 -11 -12 -12 -12 -12 -12 -11 -11 -11 -11 -11 -11 -11 -11
-10 -9 -9 -10 -11 -12 -12 -11 -10 -10 -10 -10 -10 -10 -11 -11 -12 -11 -12 -12 -11 -11 -11 -11 -11 -12 -12 -11 -11 -11 -11 -11 -11 -11 -11 -11 -12 -12 -12 -12 -12 -12 -12 -12 -12 -12 -12 -12 -12
-10 -9 -9 -11 -11 -12 -12 -11 -11 -11 -10 -10 -10 -11 -12 -12 -12 -12 -11 -12 -12 -12 -12 -11 -12 -12 -12 -12 -12 -12 -12 -12 -11 -11 -12 -12 -12 -12 -12 -12 -12 -12 -12 -12 -12 -12 -12 -12 -12
-10 -9 -11 -11 -11 -11 -11 -11 -11 -11 -11 -11 -12 -11 -10 -11 -12 -12 -12 -12 -12 -12 -12 -12 -12 -12 -12 -12 -12 -12 -12 -12 -12 -12 -12 -12 -12 -12 -12 -12 -12 -12 -12 -12 -12 -12 -12 -12 -13
-10 -9 -11 -11 -11 -11 -11 -12 -11 -12 -12 -13 -12 -12 -12 -12 -13 -13 -12 -12 -12 -12 -12 -12 -12 -12 -12 -12 -12 -12 -12 -12 -12 -12 -12 -12 -12 -12 -12 -12 -12 -12 -12 -12 -13 -13 -12 -12 -13
-8 -9 -10 -11 -11 -11 -11 -11 -12 -12 -13 -13 -12 -12 -12 -13 -13 -13 -13 -12 -12 -12 -12 -12 -13 -13 -12 -12 -12 -12 -13 -13 -12 -13 -12 -12 -12 -12 -12 -12 -12 -12 -12 -13 -13 -13 -13 -13 -13
-10 -9 -10 -11 -11 -12 -12 -12 -12 -12 -14 -14 -13 -12 -12 -12 -13 -13 -13 -13 -13 -13 -13 -12 -13 -13 -12 -12 -12 -12 -13 -13 -13 -13 -13 -12 -13 -12 -12 -13 -13 -13 -12 -13 -13 -13 -13 -13 -13
-10 -10 -10 -11 -12 -13 -13 -11 -12 -14 -14 -13 -13 -13 -12 -12 -13 -13 -13 -13 -13 -13 -13 -13 -13 -13 -13 -13 -13 -13 -13 -13 -13 -13 -13 -13 -13 -13 -13 -13 -13 -13 -13 -13 -13 -13 -13 -13 -13
-11 -11 -10 -11 -13 -13 -14 -11 -13 -14 -14 -14 -14 -13 -13 -13 -13 -13 -13 -13 -13 -13 -13 -13 -13 -13 -13 -13 -13 -13 -13 -13 -13 -13 -13 -13 -13 -13 -13 -13 -13 -13 -13 -13 -13 -13 -13 -13 -13
-11 -11 -11 -12 -13 -14 -14 -13 -13 -15 -14 -14 -14 -13 -13 -13 -14 -13 -14 -14 -14 -14 -13 -14 -14 -14 -14 -14 -13 -13 -13 -13 -13 -13 -13 -13 -13 -13 -13 -13 -13 -13 -13 -13 -13 -13 -13 -13 -13
-13 -13 -13 -13 -15 -15 -15 -13 -13 -15 -15 -14 -14 -14 -13 -13 -14 -14 -14 -14 -14 -14 -14 -14 -14 -14 -14 -14 -14 -14 -14 -14 -13 -13 -14 -14 -13 -13 -13 -13 -13 -13 -13 -13 -13 -13 -13 -13 -13
-13 -13 -13 -13 -15 -15 -15 -14 -15 -16 -15 -14 -15 -14 -14 -14 -14 -14 -14 -15 -15 -15 -15 -15 -15 -14 -14 -14 -14 -14 -14 -14 -14 -14 -14 -14 -14 -14 -14 -14 -14 -14 -14 -13 -13 -13 -13 -13 -14
-15 -15 -14 -15 -16 -17 -16 -16 -16 -16 -16 -16 -16 -15 -15 -15 -15 -15 -15 -15 -15 -15 -15 -15 -14 -14 -15 -15 -15 -15 -14 -14 -14 -14 -14 -14 -14 -14 -14 -14 -14 -14 -14 -14 -14 -14 -14 -14 -14
-17 -17 -17 -17 -18 -18 -17 -17 -17 -17 -16 -17 -17 -16 -16 -16 -16 -16 -15 -15 -16 -15 -15 -15 -15 -14 -15 -15 -15 -15 -15 -15 -15 -15 -15 -15 -15 -15 -15 -15 -15 -15 -14 -14 -14 -14 -14 -15 -14
-18 -19 -18 -18 -18 -18 -19 -17 -17 -17 -17 -18 -18 -17 -17 -17 -17 -17 -17 -17 -17 -16 -16 -16 -16 -16 -16 -16 -16 -15 -16 -16 -16 -15 -15 -15 -15 -15 -15 -15 -15 -15 -15 -15 -15 -15 -15 -15 -15
-19 -20 -20 -19 -19 -19 -19 -19 -18 -18 -19 -19 -19 -19 -19 -18 -18 -18 -18 -17 -17 -17 -17 -17 -16 -16 -16 -16 -16 -16 -16 -16 -16 -16 -16 -16 -16 -16 -15 -15 -15 -15 -16 -16 -15 -15 -16 -16 -15
-21 -21 -21 -20 -20 -19 -19 -20 -19 -20 -19 -19 -19 -19 -20 -20 -19 -20 -20 -19 -19 -18 -17 -17 -17 -17 -16 -16 -17 -17 -17 -17 -17 -17 -16 -16 -16 -16 -16 -16 -16 -16 -16 -16 -16 -16 -16 -16 -16
-21 -21 -21 -21 -21 -19 -19 -20 -19 -19 -20 -21 -20 -21 -20 -20 -20 -20 -20 -19 -19 -18 -18 -17 -17 -17 -17 -17 -17 -17 -17 -17 -17 -17 -17 -17 -17 -17 -17 -17 -17 -17 -17 -17 -17 -17 -17 -16 -16
-22 -21 -21 -21 -20 -20 -21 -21 -20 -21 -20 -20 -21 -21 -21 -20 -20 -19 -19 -19 -19 -18 -18 -18 -18 -17 -17 -17 -17 -17 -17 -17 -17 -17 -17 -17 -17 -17 -17 -17 -17 -17 -17 -17 -17 -17 -17 -17 -17
-23 -23 -22 -22 -22 -22 -22 -21 -21 -21 -21 -21 -21 -21 -20 -20 -21 -21 -21 -20 -20 -20 -20 -19 -19 -18 -18 -18 -18 -18 -18 -18 -18 -17 -17 -17 -17 -17 -17 -17 -17 -17 -17 -17 -17 -17 -17 -17 -17
-24 -23 -23 -23 -23 -23 -23 -22 -22 -22 -22 -22 -22 -22 -22 -21 -22 -22 -21 -21 -20 -20 -19 -19 -19 -19 -18 -18 -18 -18 -19 -18 -18 -19 -18 -18 -18 -18 -18 -18 -18 -18 -18 -18 -17 -17 -17 -17 -17
-25 -25 -24 -24 -24 -23 -23 -23 -23 -23 -22 -22 -22 -22 -23 -23 -22 -22 -21 -21 -20 -20 -20 -20 -20 -20 -20 -20 -20 -20 -20 -20 -20 -20 -20 -20 -20 -19 -19 -19 -19 -19 -19 -19 -19 -19 -19 -18 -18
-27 -26 -26 -25 -25 -24 -24 -24 -23 -23 -23 -23 -23 -24 -24 -24 -23 -22 -22 -21 -21 -21 -21 -21 -21 -21 -22 -22 -22 -21 -21 -22 -22 -22 -22 -22 -22 -21 -21 -21 -21 -21 -21 -20 -20 -20 -20 -20 -20
Height
5796 5796 5796 5796 5800 5801 5801 5801 5799 5799 5801 5801 5802 5801 5804 5805 5805 5811 5809 5809 5810 5812 5813 5814 5816 5817 5818 5819 5820 5821 5822 5823 5823 5824 5824 5824 5825 5827 5829 5831 5832 5832 5833 5834 5837 5840 5841 5843 5845
5792 5792 5793 5792 5794 5797 5800 5797 5797 5796 5797 5799 5798 5798 5800 5801 5803 5804 5806 5806 5807 5808 5810 5811 5813 5814 5815 5817 5818 5819 5819 5820 5821 5821 5821 5821 5823 5824 5826 5828 5830 5830 5831 5831 5835 5836 5839 5841 5842
5788 5788 5788 5786 5789 5795 5796 5794 5789 5793 5793 5794 5794 5794 5796 5798 5798 5800 5801 5802 5804 5805 5807 5809 5810 5811 5812 5814 5815 5816 5818 5818 5819 5819 5819 5820 5820 5821 5823 5825 5826 5821 5822 5824 5829 5832 5834 5837 5839
5783 5782 5782 5781 5786 5791 5792 5789 5784 5787 5788 5787 5788 5787 5792 5793 5793 5795 5796 5798 5800 5802 5803 5805 5806 5807 5809 5810 5812 5813 5815 5816 5816 5817 5817 5818 5818 5819 5820 5821 5822 5822 5822 5824 5828 5830 5832 5834 5837
5776 5776 5774 5777 5783 5786 5786 5786 5780 5780 5781 5784 5783 5784 5786 5787 5790 5791 5792 5793 5794 5797 5799 5801 5801 5803 5805 5807 5809 5810 5812 5813 5814 5814 5815 5816 5817 5818 5819 5819 5821 5822 5823 5826 5828 5830 5832 5833 5835
5767 5768 5767 5771 5777 5777 5779 5778 5774 5772 5775 5777 5780 5781 5781 5783 5786 5787 5788 5789 5789 5791 5793 5795 5797 5799 5801 5803 5804 5806 5809 5810 5811 5812 5813 5813 5815 5816 5817 5818 5820 5821 5822 5823 5826 5829 5830 5833 5835
5759 5758 5758 5763 5769 5770 5771 5767 5768 5766 5767 5770 5771 5773 5776 5779 5780 5781 5783 5783 5784 5785 5788 5790 5792 5794 5797 5797 5799 5801 5804 5806 5807 5809 5810 5811 5813 5814 5815 5816 5818 5819 5820 5821 5823 5827 5829 5829 5831
5750 5749 5750 5755 5762 5765 5763 5758 5758 5760 5761 5761 5764 5766 5771 5772 5773 5773 5774 5777 5778 5780 5783 5785 5788 5789 5792 5793 5794 5796 5799 5801 5802 5804 5806 5808 5810 5811 5812 5813 5815 5817 5818 5819 5820 5823 5825 5827 5829
5741 5739 5743 5751 5753 5757 5753 5747 5747 5751 5752 5751 5755 5760 5763 5763 5764 5766 5768 5770 5772 5775 5777 5779 5782 5784 5786 5788 5789 5791 5793 5795 5797 5800 5802 5804 5806 5807 5809 5811 5812 5814 5816 5816 5817 5818 5821 5823 5825
5732 5731 5739 5743 5741 5741 5741 5739 5740 5742 5744 5744 5745 5751 5752 5754 5755 5758 5761 5762 5764 5767 5770 5772 5775 5778 5779 5782 5783 5784 5788 5790 5792 5795 5796 5799 5802 5803 5805 5807 5809 5810 5812 5814 5815 5816 5818 5820 5822
5725 5720 5729 5731 5729 5728 5729 5729 5731 5732 5734 5736 5738 5737 5739 5743 5747 5750 5751 5754 5756 5759 5761 5764 5768 5770 5772 5773 5776 5778 5781 5784 5787 5788 5790 5793 5796 5798 5799 5801 5804 5806 5808 5810 5812 5814 5815 5817 5818
5713 5714 5719 5721 5718 5715 5717 5721 5720 5724 5726 5730 5730 5728 5729 5733 5737 5741 5742 5743 5745 5749 5752 5757 5760 5763 5764 5765 5768 5771 5774 5776 5780 5781 5784 5786 5789 5791 5793 5795 5797 5800 5803 5805 5807 5809 5811 5812 5813
5702 5707 5707 5706 5707 5705 5707 5710 5715 5713 5719 5720 5721 5720 5721 5723 5726 5730 5733 5735 5738 5742 5744 5747 5750 5753 5755 5757 5760 5763 5766 5767 5771 5774 5776 5779 5781 5784 5786 5789 5791 5793 5795 5798 5801 5803 5805 5807 5810
5692 5691 5694 5696 5697 5699 5698 5700 5699 5705 5710 5709 5710 5709 5712 5715 5717 5720 5723 5726 5728 5731 5733 5736 5739 5742 5745 5748 5751 5753 5757 5759 5762 5766 5769 5771 5774 5777 5779 5781 5784 5786 5789 5791 5793 5796 5799 5801 5804
5679 5679 5680 5681 5686 5688 5687 5688 5686 5693 5695 5696 5695 5700 5701 5706 5707 5712 5712 5713 5716 5720 5724 5727 5730 5733 5735 5738 5741 5744 5747 5750 5752 5756 5760 5764 5766 5769 5771 5774 5776 5779 5781 5784 5786 5789 5792 5794 5798
5664 5665 5665 5668 5673 5675 5675 5677 5679 5683 5680 5683 5687 5689 5690 5694 5695 5696 5700 5703 5707 5710 5712 5715 5719 5722 5725 5728 5731 5733 5736 5739 5742 5746 5750 5753 5756 5759 5762 5765 5768 5771 5773 5776 5778 5780 5783 5786 5788
5651 5653 5655 5657 5659 5658 5658 5662 5664 5666 5666 5671 5673 5676 5679 5680 5684 5687 5690 5692 5695 5700 5703 5705 5708 5711 5714 5716 5719 5722 5725 5729 5733 5736 5739 5742 5745 5748 5752 5755 5758 5761 5764 5766 5769 5772 5775 5777 5780
5638 5636 5637 5637 5639 5638 5639 5643 5644 5652 5653 5655 5659 5662 5666 5668 5672 5677 5679 5681 5685 5688 5692 5695 5697 5701 5703 5706 5708 5711 5714 5718 5721 5724 5728 5731 5734 5737 5741 5744 5747 5750 5754 5757 5760 5762 5764 5767 5770
5617 5619 5621 5624 5624 5623 5627 5630 5633 5634 5640 5642 5646 5650 5653 5656 5660 5663 5666 5671 5673 5676 5678 5680 5684 5688 5691 5695 5697 5700 5702 5705 5708 5711 5714 5718 5723 5727 5730 5733 5736 5739 5742 5746 5749 5751 5754 5757 5760
5602 5603 5609 5610 5609 5606 5611 5617 5616 5619 5626 5630 5634 5638 5641 5645 5647 5651 5653 5657 5660 5662 5664 5668 5671 5674 5678 5681 5684 5688 5690 5694 5697 5701 5704 5708 5711 5715 5718 5721 5725 5728 5731 5734 5737 5740 5744 5746 5749
5590 5590 5594 5595 5593 5593 5596 5600 5603 5608 5613 5617 5620 5624 5628 5631 5635 5638 5642 5644 5647 5650 5653 5655 5658 5661 5664 5668 5672 5676 5680 5683 5687 5690 5692 5694 5697 5700 5704 5708 5712 5716 5719 5722 5726 5729 5732 5735 5738
5578 5579 5580 5581 5581 5583 5584 5587 5591 5596 5600 5602 5605 5608 5614 5617 5621 5625 5629 5632 5635 5638 5641 5644 5647 5649 5652 5656 5660 5664 5667 5670 5672 5675 5679 5682 5686 5690 5693 5697 5700 5704 5707 5710 5714 5717 5720 5723 5726
5570 5569 5570 5570 5571 5572 5575 5575 5580 5582 5586 5589 5592 5596 5599 5604 5607 5612 5616 5620 5624 5628 5631 5633 5636 5638 5641 5645 5648 5651 5654 5657 5660 5664 5667 5670 5673 5677 5680 5684 5687 5691 5694 5697 5700 5703 5706 5709 5712
5557 5558 5559 5559 5561 5561 5569 5566 5570 5573 5577 5579 5581 5585 5588 5592 5596 5600 5604 5608 5612 5615 5619 5622 5625 5628 5631 5634 5637 5639 5642 5646 5648 5651 5654 5657 5660 5664 5667 5670 5673 5676 5679 5683 5686 5689 5691 5694 5697
5544 5545 5545 5547 5547 5551 5557 5554 5558 5564 5567 5569 5571 5575 5578 5582 5586 5590 5594 5598 5601 5604 5606 5610 5613 5616 5620 5623 5625 5628 5631 5633 5636 5638 5642 5645 5648 5651 5653 5656 5659 5662 5664 5668 5671 5673 5676 5679 5682
5532 5533 5534 5534 5538 5542 5543 5542 5547 5551 5555 5558 5561 5565 5570 5573 5576 5579 5583 5586 5589 5592 5595 5597 5599 5603 5607 5610 5612 5615 5618 5619 5622 5624 5628 5631 5634 5637 5639 5642 5644 5647 5649 5651 5655 5658 5661 5664 5666
5520 5521 5525 5526 5527 5528 5529 5533 5537 5540 5544 5547 5551 5554 5557 5560 5563 5567 5570 5573 5576 5580 5582 5585 5587 5589 5592 5595 5598 5599 5601 5605 5608 5610 5613 5616 5618 5621 5623 5626 5628 5630 5633 5636 5638 5641 5644 5647 5649
5506 5511 5514 5515 5516 5517 5517 5521 5525 5529 5533 5537 5541 5543 5545 5548 5552 5556 5559 5563 5565 5567 5569 5571 5574 5577 5579 5581 5583 5584 5587 5589 5592 5595 5597 5599 5602 5604 5606 5608 5610 5612 5614 5617 5620 5623 5626 5629 5631
5492 5495 5500 5504 5505 5506 5509 5512 5518 5521 5525 5528 5530 5532 5534 5537 5541 5545 5548 5550 5552 5554 5555 5557 5559 5561 5564 5566 5568 5570 5571 5573 5575 5578 5580 5582 5584 5585 5587 5589 5591 5594 5597 5599 5602 5604 5607 5610 5613
5479 5484 5488 5490 5494 5496 5499 5504 5507 5511 5514 5516 5518 5520 5522 5525 5528 5531 5534 5537 5539 5541 5542 5544 5545 5546 5548 5550 5553 5555 5557 5559 5560 5562 5565 5565 5567 5570 5572 5573 5575 5578 5580 5583 5584 5586 5589 5592 5594
Wind_Speed
20 19 20 19 19 11 8 11 17 19 19 20 21 21 20 21 19 15 14 14 16 16 15 14 12 14 14 11 10 10 9 7 6 4 4 7 14 20 20 19 13 14 18 20 21 27 20 13 24
22 23 24 24 23 14 10 17 19 21 19 18 22 24 23 24 20 18 17 17 19 19 18 17 16 16 16 14 13 12 11 8 6 4 1 2 8 13 17 17 12 17 18 19 23 17 16 10 11
27 28 29 29 25 14 16 20 28 23 25 24 26 24 24 23 22 21 21 22 22 21 21 20 19 19 19 17 16 15 12 10 7 5 3 1 2 8 14 18 24 24 16 16 19 24 12 11 10
31 32 35 35 27 20 20 25 30 28 28 28 28 32 25 24 25 25 24 24 24 24 23 23 22 21 21 20 19 18 15 13 10 8 7 6 6 7 11 16 21 26 27 19 11 12 10 14 16
36 35 38 36 29 22 25 26 33 33 33 32 32 33 31 29 27 25 26 28 28 27 26 25 24 24 23 23 22 21 18 16 15 13 12 12 12 11 11 16 20 23 21 19 17 12 8 13 15
37 36 39 35 29 27 26 28 36 38 37 35 33 35 36 33 29 29 28 27 29 29 29 29 28 27 25 25 25 23 20 19 19 18 17 16 14 13 13 14 17 18 21 23 21 23 22 19 12
33 34 34 32 26 26 24 33 35 39 39 35 35 35 36 34 32 32 32 31 32 31 29 28 27 26 26 26 26 25 23 22 22 22 21 19 16 14 14 14 16 17 18 21 21 24 22 19 25
33 36 33 28 22 20 27 36 37 37 38 38 36 34 32 36 36 37 37 36 35 35 32 30 28 26 25 25 26 24 23 23 23 24 22 19 19 19 18 17 17 16 17 18 19 19 22 24 25
35 39 33 25 22 21 32 42 42 37 36 39 37 32 30 34 38 40 39 37 36 35 34 33 31 29 27 27 27 26 25 25 26 23 19 20 22 22 21 21 19 18 16 16 16 16 18 20 22
41 42 32 28 31 33 37 43 43 42 41 41 40 33 34 35 37 40 40 40 38 36 35 34 33 31 31 31 32 31 28 27 26 25 25 24 24 25 25 24 23 22 21 19 18 17 15 17 20
39 41 34 32 37 40 41 42 43 45 43 41 40 42 41 40 37 37 40 41 41 38 37 37 35 34 34 35 35 34 33 31 28 29 29 27 26 27 28 28 27 27 26 25 24 23 23 19 17
42 39 38 35 39 44 45 43 45 43 42 37 40 44 46 44 40 37 41 45 44 42 41 38 37 37 38 38 37 37 37 36 33 33 33 32 31 30 31 31 30 29 28 28 27 26 25 24 23
43 39 38 39 41 42 43 44 39 44 38 38 39 42 45 45 44 42 40 43 43 42 42 42 40 40 41 42 41 39 38 39 38 36 36 36 35 34 33 33 32 32 32 31 30 29 28 27 27
43 45 44 43 40 38 39 38 41 41 35 40 43 45 44 45 45 44 43 42 43 44 45 45 43 42 42 42 42 42 42 42 41 39 38 39 38 37 36 36 35 35 35 34 34 33 32 31 31
48 49 49 46 43 40 42 42 44 41 42 44 47 47 46 43 45 41 44 46 46 45 45 46 44 44 44 44 44 43 43 44 44 42 41 40 41 40 40 40 38 37 37 37 36 36 35 35 35
52 53 54 52 46 45 45 46 46 42 46 47 48 49 51 47 46 48 47 46 45 44 44 44 45 46 46 46 47 47 47 46 46 44 43 42 43 43 42 42 42 41 39 38 37 37 37 37 36
53 52 51 51 51 50 51 52 51 48 49 47 47 48 51 54 52 49 49 48 47 45 44 44 43 44 44 45 47 48 49 49 48 47 46 45 45 45 45 44 44 44 43 42 40 39 38 37 37
50 54 55 57 56 57 58 60 59 50 52 53 52 52 51 52 51 49 51 52 51 49 47 46 47 45 45 44 45 46 47 48 49 49 48 48 47 47 47 47 47 46 45 44 43 42 41 41 40
57 59 60 59 58 60 58 60 59 54 55 55 53 53 52 51 50 50 51 50 51 51 51 52 51 51 50 49 48 47 47 48 49 50 51 50 50 49 49 50 49 49 48 47 46 46 46 44 43
55 57 57 57 55 57 55 53 55 56 53 51 50 51 52 51 50 50 47 46 48 50 51 53 55 55 54 54 53 52 52 51 51 50 49 49 50 51 51 51 51 52 51 50 49 49 48 47 46
44 46 45 48 49 50 52 52 50 51 50 47 49 52 51 52 51 50 50 48 48 48 49 50 50 52 54 54 54 55 54 52 51 50 50 51 52 52 52 52 52 52 53 53 52 51 50 49 48
36 35 37 37 40 45 47 51 51 51 52 50 51 53 50 48 46 47 47 45 44 45 46 47 48 47 47 49 51 53 54 54 55 55 55 55 55 54 53 53 54 54 54 54 54 53 52 50 49
34 33 34 35 36 37 36 40 42 43 43 41 41 44 42 42 42 41 41 41 42 44 44 46 46 46 46 46 48 49 50 52 53 54 54 54 55 56 57 57 55 55 55 55 55 55 55 56 57
39 39 38 40 41 42 36 37 39 34 32 35 38 40 36 36 37 37 37 38 39 41 41 41 42 43 44 46 47 49 48 49 51 53 54 55 56 56 56 57 58 59 59 59 58 57 59 61 59
40 41 43 44 47 41 41 47 47 42 39 37 37 33 34 37 36 36 37 38 41 43 45 45 45 45 46 46 47 48 49 51 52 53 53 53 54 55 56 57 57 58 59 59 60 62 63 63 63
42 42 43 43 42 42 43 46 44 44 44 42 41 42 39 39 41 44 46 47 47 45 44 47 49 49 48 49 50 51 53 54 55 56 56 57 59 60 61 62 62 62 63 63 63 63 64 65 66
40 40 39 39 43 46 47 45 43 43 43 43 43 42 41 39 36 35 35 36 38 40 43 46 49 51 53 52 53 56 57 59 60 62 62 62 63 63 64 65 65 65 66 67 68 68 69 70 70
44 40 35 35 39 41 45 44 44 41 40 39 36 36 39 38 36 35 35 36 38 40 44 46 48 50 53 55 58 58 60 63 64 65 65 66 67 68 68 68 67 67 68 69 70 71 71 71 72
38 36 37 37 37 37 39 41 40 40 40 40 41 41 37 36 36 37 38 38 40 42 45 47 48 49 50 53 56 59 60 61 63 65 66 66 66 68 69 71 71 71 72 72 71 71 72 72 72
24 30 34 35 39 40 40 41 41 41 40 40 37 38 39 40 41 40 40 39 40 42 44 45 47 48 50 53 55 58 60 62 62 63 63 61 62 62 61 62 64 65 65 65 67 69 71 71 70
Wind_Direction
250 251 251 249 250 237 232 244 249 254 251 253 253 246 250 246 249 240 234 230 235 237 238 234 224 230 236 240 240 240 245 244 250 246 242 245 243 239 236 242 250 216 212 219 224 226 231 233 240
251 254 258 260 257 246 236 252 250 255 255 247 248 252 247 248 250 244 242 242 240 243 241 240 238 236 242 239 241 246 252 260 262 258 251 251 231 233 230 227 210 224 217 221 212 209 210 237 227
260 262 262 259 259 264 249 257 260 252 258 258 255 249 244 247 245 243 243 243 246 245 244 243 243 242 245 248 247 249 251 256 260 260 233 198 246 227 228 228 218 222 219 236 291 283 244 200 200
268 266 265 263 265 265 261 255 262 257 253 253 258 259 253 247 247 248 247 248 248 250 247 247 246 246 247 250 252 255 258 256 253 240 229 233 241 248 232 227 227 236 252 267 246 235 183 180 193
266 267 268 267 272 272 263 264 265 264 258 252 248 255 259 256 251 248 250 249 251 249 251 250 250 250 251 253 252 255 255 255 251 240 230 228 232 236 230 226 226 233 238 236 223 193 200 191 179
262 267 272 273 268 264 263 262 262 266 267 265 260 254 255 256 257 256 251 255 254 252 251 252 253 254 256 256 256 254 252 253 252 244 232 226 226 233 233 231 233 238 238 241 236 242 251 241 192
261 261 265 266 267 262 259 256 258 260 264 265 263 260 254 257 259 256 252 249 253 255 254 253 256 256 254 256 258 256 254 254 251 247 243 237 226 226 227 232 231 233 239 242 238 237 237 235 226
265 266 269 269 271 263 254 253 255 262 267 267 266 267 260 257 251 252 252 251 251 253 255 255 255 255 253 253 255 257 251 248 247 243 244 243 239 231 224 224 225 229 231 238 236 229 233 229 230
263 265 270 277 268 258 241 250 255 258 260 265 267 267 260 255 249 249 252 255 255 255 256 256 255 255 255 254 254 250 249 245 246 250 249 245 242 240 236 229 227 228 228 234 234 234 231 232 233
268 271 272 267 253 247 244 248 255 258 259 261 261 259 254 249 247 247 249 250 252 253 253 254 253 252 253 252 253 254 250 250 249 246 241 239 239 243 242 239 233 232 232 231 231 235 231 233 235
269 266 265 257 255 252 246 246 251 254 256 256 258 257 255 253 249 243 242 245 250 251 250 250 251 252 251 250 251 253 254 252 249 250 247 243 242 243 244 244 242 236 235 235 232 229 235 233 229
272 271 268 259 256 255 252 250 251 252 254 254 253 255 256 257 254 246 242 242 242 245 248 249 249 250 251 252 252 252 252 254 250 247 248 247 243 241 242 245 245 247 242 240 240 239 234 236 238
269 273 266 262 258 259 259 257 253 255 254 251 249 248 251 254 255 252 245 243 243 245 247 248 247 246 247 249 252 253 251 252 251 249 248 249 248 246 245 243 245 246 246 246 244 243 240 238 237
268 266 266 265 262 261 260 259 256 251 254 255 250 246 243 248 252 254 254 249 245 243 242 243 243 244 246 248 249 251 252 252 253 251 250 249 249 248 248 248 246 245 246 246 246 246 245 243 240
266 265 264 259 259 254 253 254 253 251 246 249 252 252 249 243 248 249 248 249 248 245 244 245 246 245 244 244 246 248 249 250 252 252 251 250 250 250 248 249 250 248 247 247 247 248 247 247 244
265 264 262 261 257 254 251 251 250 250 250 248 248 252 255 249 242 243 247 248 247 247 246 245 244 244 245 247 247 246 247 247 249 250 250 250 249 249 249 249 249 250 249 249 248 248 248 248 248
266 268 269 268 263 260 252 250 247 241 245 247 245 246 251 253 248 244 246 249 249 245 246 248 245 245 244 244 245 245 246 247 248 248 248 248 247 247 247 248 247 247 248 249 249 249 249 249 248
272 263 259 257 256 252 252 251 249 244 244 244 244 245 244 247 252 252 248 246 247 249 249 247 247 245 245 245 244 245 246 247 247 248 249 248 248 247 246 248 248 248 248 249 251 251 251 251 251
261 261 260 260 259 259 257 257 256 252 247 246 245 242 242 244 247 250 253 250 247 246 246 245 243 243 245 246 245 244 243 242 243 244 245 246 246 247 247 248 249 248 249 249 248 248 249 250 250
261 260 260 259 260 261 259 256 255 255 253 249 245 241 244 246 246 247 246 245 245 244 245 245 244 244 242 242 243 243 244 245 244 244 246 248 248 248 248 248 247 248 248 249 250 250 250 251 252
263 262 260 260 258 258 258 256 254 253 251 245 243 243 245 246 243 241 242 240 240 241 241 242 243 243 242 241 240 242 243 245 246 245 244 245 245 245 245 246 246 247 249 250 250 251 252 252 252
260 259 256 255 254 255 255 256 253 251 249 247 245 245 241 237 236 234 234 235 235 237 238 239 241 242 242 242 243 242 242 241 242 245 245 244 245 247 248 248 249 249 250 251 252 251 252 250 252
260 256 256 255 254 252 253 255 254 252 250 243 236 233 231 227 226 230 232 234 234 236 239 241 240 241 242 242 242 242 242 242 243 244 244 244 245 246 246 248 250 251 252 252 252 251 249 253 254
259 259 258 257 252 250 249 244 243 239 239 236 231 229 230 236 232 231 235 237 236 237 239 239 241 241 242 244 244 244 243 244 244 244 245 245 246 246 246 246 248 249 250 251 251 251 252 256 256
262 263 258 252 255 263 259 254 248 246 244 245 245 241 238 230 229 231 233 235 235 237 239 242 242 241 242 244 245 246 247 247 247 246 247 247 248 248 248 248 248 248 249 250 251 252 253 254 254
263 262 261 261 263 266 264 261 261 257 253 247 241 238 236 240 239 236 236 236 237 237 238 239 241 242 242 244 246 248 249 249 249 248 248 249 250 250 251 251 251 251 251 251 251 251 252 252 253
253 256 260 264 263 264 262 261 259 257 253 251 250 246 241 237 239 242 245 247 248 248 247 246 246 248 249 247 249 249 250 251 250 250 250 250 251 251 252 252 253 254 255 255 255 255 256 256 255
251 250 247 245 247 249 255 259 258 254 249 245 243 241 242 243 246 247 247 251 256 259 260 257 254 250 250 250 250 248 248 248 250 251 252 253 253 253 253 253 254 254 254 254 254 255 256 257 258
251 252 249 245 243 245 245 249 241 239 241 242 243 247 248 249 246 249 252 255 259 261 262 261 260 257 253 251 247 249 249 249 249 249 250 252 253 253 252 252 253 254 255 255 255 254 255 256 256
241 237 232 237 241 242 243 244 244 247 250 250 249 250 248 249 252 253 255 259 262 263 260 258 256 255 254 253 251 254 254 251 251 252 253 253 254 255 254 255 256 256 255 257 257 257 256 257 257